Flag for Switzerland Weather past 2 weeks in Bellinzona, Ticino, Switzerland

Now
73 °F

Mild.


Feels Like: 77 °F
Forecast: 52 / 80 °F
Wind: 6 mph from West

Location: Locarno-Magadino

Current Time: May 29, 2015 at 7:30:58 PM

Latest Report: May 29, 2015 at 6:00 PM


Visibility: N/A

Pressure: 29.89 "Hg

Humidity: 48%

Dew point: 52 °F

Location of BellinzonaLocation

Historic Weather in Bellinzona — Graph

°F

Bellinzona temperature yesterday

Maximum temperature yesterday: 75 °F (at 5:00 PM)
Minimum temperature yesterday: 44 °F (at 6:00 AM)
Average temperature yesterday: 62 °F

Past Weeks' High & Low Weather Summary

 TemperatureHumidityPressure
High79 °F (May 14, 6:00 PM)97% (May 15, 10:00 PM)30.19 "Hg (May 15, 10:00 PM)
Low44 °F (May 28, 6:00 AM)20% (May 27, 3:00 PM)29.63 "Hg (May 15, 8:00 AM)
Average62 °F63%29.92 "Hg
* Reported May 14 6:00 PM — May 29 6:00 PM, Bellinzona, Weather by CustomWeather, © 2015

Note: Actual official high and low records may vary slightly from our data, if they occured in-between our weather recording intervals... More about our weather records

Advertising

Bellinzona weather history for previous 24 hours

 ConditionsComfort  
Time TempWeatherWind HumidityBarometerVisibility
6:00 PM
Fri, May 29
73 °FMild.6 mph48%29.89 "HgN/A
5:00 PM74 °FMild.9 mph48%29.89 "HgN/A
4:00 PM74 °FMild.9 mph48%29.90 "HgN/A
3:00 PM74 °FMild.9 mph46%29.91 "HgN/A
2:00 PM73 °FMild.10 mph49%29.94 "HgN/A
1:00 PM72 °FMild.7 mph52%29.96 "HgN/A
12:00 PM68 °FMild.8 mph56%29.98 "HgN/A
11:00 AM68 °FMild.5 mph56%30.00 "HgN/A
10:00 AM64 °FMild.5 mph65%30.01 "HgN/A
9:00 AM61 °FCool.1 mph69%30.02 "HgN/A
8:00 AM58 °FCool.1 mph77%30.03 "HgN/A
7:00 AM53 °FCool.No wind93%30.03 "HgN/A
6:00 AM51 °FCool.1 mph94%30.03 "HgN/A
5:00 AM51 °FCool.2 mph94%30.03 "HgN/A
4:00 AM51 °FCool.1 mph96%30.02 "HgN/A
3:00 AM50 °FCool.2 mph95%30.03 "HgN/A
2:00 AM54 °FCool.1 mph87%30.03 "HgN/A
10:00 PM
Thu, May 28
65 °FMild.3 mph57%29.99 "HgN/A
9:00 PM63 °FMild.3 mph69%29.98 "HgN/A
8:00 PM71 °FMild.7 mph44%29.96 "HgN/A
7:00 PM73 °FMild.8 mph42%29.95 "HgN/A
Weather by CustomWeather, © 2015

See weather overviewHow to use our weather pages